Simultaneous Nadir Overpasses (SNOs) Predictions

Prediction of SNOs between NOAA-19 and TERRA Satellite Orbit:

Table of predicted SNOs for the next 14.0 days since TLE Epoch: 10/6/2018
Index Date (NOAA-19) Time (NOAA-19) Lat,Lon (NOAA-19) SZA (NOAA-19 ) Date (TERRA) Time (TERRA) Lat,Lon (TERRA) SZA (TERRA ) Distance(km) Time Diff (sec)
1 10/06/2018 04:57:44 -77.59, -56.49 96.57 10/06/2018 04:58:34 -77.57, -56.48 96.57 1.79 50
2 10/06/2018 05:48:39 77.54, 111.01 83.42 10/06/2018 05:48:00 77.56, 111.12 83.43 3.27 39
3 10/08/2018 10:31:12 77.61, 40.09 84.31 10/08/2018 10:32:15 77.61, 40.26 84.35 4.13 63
4 10/08/2018 11:22:16 -77.57,-152.45 95.70 10/08/2018 11:21:44 -77.54,-152.41 95.74 3.55 32
5 10/10/2018 16:04:48 -77.59, 136.87 94.84 10/10/2018 16:05:59 -77.59, 136.74 94.83 3.16 71
6 10/10/2018 16:55:43 77.57, -55.72 85.16 10/10/2018 16:55:25 77.57, -55.69 85.17 1.10 18
7 10/12/2018 22:29:19 -77.58, 40.88 93.98 10/12/2018 22:29:07 -77.60, 40.99 93.96 3.27 12
8 10/15/2018 04:02:46 77.60, 137.52 86.88 10/15/2018 04:02:49 77.59, 137.50 86.87 1.21 3
9 10/17/2018 09:36:23 -77.61,-125.89 92.28 10/17/2018 09:36:32 -77.61,-125.81 92.27 1.83 9
10 10/17/2018 10:27:12 77.35, 42.70 87.60 10/17/2018 10:26:02 77.41, 40.99 87.49 41.98 70
11 10/19/2018 15:09:50 77.63, -29.27 88.55 10/19/2018 15:10:13 77.64, -29.12 88.58 3.65 23




NCC Satellite Simultaneous Nadir Overpasses (SNOs) Prediction Service
